User: anonymous   Login
Location: Dompnac
(44.5644°N, 4.1026°E)
Time: 19:44:24
(UTC+00:00)
Language:

Cosmos 1937 Rocket - Orbit

View from above orbital plane
View from above orbital plane
View from above satellite
View from above satellite

Ground track
Ground track

The orbit data is extracted from the following two-line orbital elements,

1 19039U 88029B   20333.51036387 -.00000047  00000-0 -65938-5 0  9992
2 19039  74.0451 138.3371 0023835 356.2024   3.8945 14.38490183712060
Epoch (UTC): 28 November 2020 12:14:55
Eccentricity: 0.0023835
inclination: 74.0451°
perigee height: 746 km
apogee height: 780 km
right ascension of ascending node: 138.3371°
argument of perigee: 356.2024°
revolutions per day: 14.38490183
mean anomaly at epoch: 3.8945°
orbit number at epoch: 71206

The dashed part of the orbit path shows where the satellite is in the earth's shadow,  

DLR